Content
SEND FEEDBACK

Daily
Averages
Monthly
Summary
Philippines

BAGUMBAYAN, PHILIPPINES


Home > Asia > Philippines
Elevation: 49 feet     Latitude: 14 31N     Longitude: 121 00E

WEATHER
 
SELECT A DAY
Number of Records: 172,756;   Date Range: 7/1/96 - 9/18/14
 
SHARE

PRINT THIS DATA

[ ← Previous Day ]
WEATHER ALMANAC - SEPTEMBER 14, 2013
[ Next Day → ]
[ °C ]   °F
Weather ElementAverageHighLow
Temperature80.6 °F85 °F (2:00 pm)77 °F (9:00 pm)
Dewpoint78.4 °F80.6 °F (10:00 am)77 °F (5:00 am)
Humidity92.7 %100 % (1:00 am)78 % (2:00 pm)
Barometer29.74 in29.79 in (8:00 am)29.68 in (3:00 pm)
Wind Speed9 mph17.3 mph (3:00 pm)
Wind Gust35.7 mph (3:00 pm)
Weather ElementAverage
Visibility6.1 mi
Wind DirectionSW (227.1 °)

Weather ElementTotal
Precipitation---
Cooling Degree Days16 (Base 65)
Growing Degree Days31 (Base 50)
Averaged from 32 records on September 14, 2013
WEATHER CONDITIONS BREAKOUT
WIND DIRECTION BREAKOUT
WEATHER BY HOUR - SEPTEMBER 14, 2013
[ °C ]   °F
Local TimeTemperatureDewpointHumidityBarometerVisibilityWind DirectionWind SpeedGust SpeedPrecipitationEventsConditions
1:00 AM78.8 °F78.8 °F100 %29.77 in6.2 miSW (230°)6.9 mphMostly Cloudy
2:00 AM79.0 °F78.0 °F98 %29.76 in6.0 miSW (220°)4.5 mphHaze
2:00 AM78.8 °F78.8 °F100 %29.74 in6.2 miSW (230°)4.6 mphScattered Clouds
3:00 AM78.8 °F78.8 °F100 %29.74 in6.2 miSSW (210°)5.8 mphMostly Cloudy
4:00 AM78.8 °F78.8 °F100 %29.74 in6.2 miCalmScattered Clouds
5:00 AM78.0 °F78.0 °F100 %29.73 in6.0 mi°2.2 mphHaze
5:00 AM78.8 °F77.0 °F94 %29.74 in6.2 miVariable2.3 mphScattered Clouds
6:00 AM78.8 °F77.0 °F94 %29.74 in6.2 miVariable2.3 mphScattered Clouds
7:00 AM78.8 °F78.8 °F100 %29.77 in6.2 miSW (230°)3.5 mphMostly Cloudy
8:00 AM81.0 °F79.0 °F90 %29.79 in6.0 miSSW (210°)6.7 mphHaze
8:00 AM80.6 °F78.8 °F94 %29.77 in6.2 miSSW (210°)5.8 mphMostly Cloudy
9:00 AM78.8 °F78.8 °F100 %29.77 in6.2 miWSW (240°)8.1 mphRainLight Rain Showers
10:00 AM80.6 °F80.6 °F100 %29.77 in6.2 miWSW (250°)4.6 mphRainLight Rain
11:00 AM82.0 °F80.0 °F90 %29.78 in6.0 miWest (260°)11.2 mphRainLight Rain
11:00 AM82.4 °F78.8 °F89 %29.77 in6.2 miWest (260°)12.7 mphRainLight Rain
12:00 PM84.2 °F78.8 °F84 %29.74 in6.2 miWest (260°)15.0 mphMostly Cloudy
1:00 PM82.4 °F77.0 °F84 %29.71 in6.2 miWSW (250°)15.0 mphMostly Cloudy
1:19 PM82.4 °F77.0 °F84 %29.71 in6.2 miWSW (250°)11.5 mphRainLight Rain Showers
2:00 PM85.0 °F79.0 °F78 %29.71 in6.0 miWSW (250°)13.4 mphRainLight Rain
2:00 PM84.2 °F78.8 °F84 %29.71 in6.2 miWSW (250°)15.0 mphMostly Cloudy
3:00 PM84.2 °F78.8 °F84 %29.68 in5.6 miWest (260°)17.3 mph35.7 mphRainLight Rain Showers
4:00 PM82.4 °F78.8 °F89 %29.68 in6.2 miWSW (250°)10.4 mphRainLight Rain
5:00 PM83.0 °F78.0 °F81 %29.70 in6.0 miWest (260°)13.4 mphRainLight Rain
5:00 PM84.2 °F78.8 °F84 %29.68 in6.2 miWest (260°)13.8 mphRainLight Rain
6:00 PM80.6 °F77.0 °F89 %29.71 in5.6 miWest (270°)15.0 mphRainLight Rain
7:00 PM78.8 °F78.8 °F100 %29.74 in6.2 miWest (260°)16.1 mphRainLight Rain
8:00 PM78.0 °F78.0 °F100 %29.75 in6.0 miWest (270°)11.2 mphRainLight Rain
8:00 PM78.8 °F78.8 °F100 %29.74 in6.2 miWest (270°)10.4 mphRainLight Rain
9:00 PM77.0 °F77.0 °F100 %29.77 in6.2 miWNW (290°)8.1 mphRainLight Rain
10:00 PM80.6 °F77.0 °F89 %29.77 in6.2 miWest (270°)9.2 mphRainLight Rain
11:00 PM80.0 °F78.0 °F93 %29.76 in6.0 miWest (280°)6.7 mphRainLight Rain
11:00 PM80.6 °F78.8 °F94 %29.74 in6.2 miWNW (290°)5.8 mphOvercast
Hourly data recorded from RPLL, located miles away from Bagumbayan, Philippines







STORIES FROM OUR PARTNERS